Vorticity
26 14 22 32 48 52 29 2 27 19 26 17 7 3 4 4 6 6 5 6 6 4
36 13 27 8 42 34 76 -45 -0 26 16 29 25 6 1 3 6 8 6 6 5 6
28 10 -5 12 20 22 43 27 11 27 19 19 20 9 10 4 1 5 6 6 6 6
-16 -14 -10 -15 11 19 24 12 -10 13 23 30 22 18 -4 2 8 1 4 3 4 6
34 34 -23 28 -6 7 1 42 10 -22 26 25 29 18 6 5 3 4 -4 -6 -1 2
19 22 11 14 28 12 -6 15 18 48 48 21 9 26 19 6 7 8 7 9 5 6
34 19 -50 9 14 -20 12 3 -9 20 22 32 22 27 24 0 -1 3 5 8 5 8
9 10 25 -5 -23 26 24 4 -6 9 7 21 37 17 17 56 11 -0 -3 5 5 10
12 11 24 2 -2 34 19 16 4 13 -34 21 11 10 38 15 14 39 27 4 12 3
19 16 16 17 38 17 -12 26 -31 30 -10 5 -2 18 -4 20 13 21 24 31 40 33
6 7 21 11 17 40 18 17 29 -9 19 11 18 16 4 -2 -1 -12 -8 -9 -0 1
4 4 8 12 15 6 18 18 24 46 -18 10 -10 -23 -3 14 7 3 -12 4 11 14
2 4 2 4 9 13 10 10 24 32 41 -13 29 -5 -25 1 10 -0 18 -17 15 -3
3 4 4 4 4 6 15 11 8 16 18 9 45 -7 -12 25 -3 15 -2 9 7 12
Height
5593 5598 5601 5603 5602 5611 5619 5627 5636 5642 5651 5660 5671 5683 5692 5703 5711 5718 5725 5732 5737 5741
5587 5593 5596 5597 5598 5604 5610 5620 5626 5633 5643 5652 5659 5670 5680 5692 5700 5707 5713 5719 5725 5730
5581 5586 5588 5589 5592 5599 5607 5615 5616 5623 5632 5640 5650 5658 5669 5680 5689 5695 5701 5706 5712 5718
5576 5576 5580 5582 5589 5596 5599 5605 5614 5617 5623 5630 5638 5648 5657 5667 5676 5684 5691 5695 5701 5708
5566 5569 5572 5577 5584 5587 5594 5598 5606 5610 5614 5620 5630 5639 5646 5656 5665 5673 5680 5685 5692 5697
5562 5564 5570 5573 5579 5583 5588 5592 5596 5602 5607 5613 5621 5630 5637 5644 5653 5661 5667 5674 5680 5685
5560 5561 5561 5564 5574 5578 5583 5589 5590 5597 5602 5607 5612 5620 5627 5633 5640 5646 5655 5663 5669 5674
5555 5558 5557 5558 5563 5570 5577 5581 5586 5591 5597 5602 5607 5612 5619 5625 5631 5636 5641 5648 5656 5661
5552 5552 5555 5556 5558 5564 5570 5575 5582 5588 5591 5597 5603 5607 5612 5616 5622 5628 5634 5639 5644 5647
5548 5550 5551 5552 5553 5557 5562 5570 5577 5581 5586 5591 5597 5603 5607 5611 5614 5619 5625 5630 5634 5638
5543 5544 5546 5548 5550 5552 5556 5561 5567 5572 5576 5584 5589 5594 5599 5603 5607 5611 5615 5619 5624 5627
5536 5537 5540 5542 5545 5548 5551 5554 5557 5562 5568 5574 5578 5583 5588 5594 5598 5603 5606 5610 5613 5615
5530 5533 5535 5537 5538 5539 5543 5548 5552 5555 5560 5565 5569 5573 5578 5585 5589 5592 5595 5598 5600 5604
5521 5525 5529 5532 5535 5538 5541 5543 5546 5548 5552 5556 5559 5564 5569 5573 5577 5580 5584 5587 5589 5592